Joliet, IL

2:39 PM CST on December 04, 2016 (GMT -0600)
Joliet Regional

Weather History for KJOT - September, 2012

Change the Weather History Date:

Wednesday, September 26, 2012

  Actual Average (KLOT) Record (KLOT)
Temperature  
Mean Temperature 62 °F 61 °F  
Max Temperature 70 °F 72 °F 93 °F (1998)
Min Temperature 53 °F 50 °F 37 °F (2000)
Degree Days  
Heating Degree Days 4 6  
Month to date heating degree days 65  
Since 1 July heating degree days 73  
Cooling Degree Days 0 2  
Month to date cooling degree days 89  
Year to date cooling degree days 842  
Growing Degree Days 12 (Base 50)    
Moisture  
Dew Point 54 °F    
Average Humidity 80    
Maximum Humidity 100    
Minimum Humidity 52    
Precipitation  
Precipitation 0.00 in 0.09 in 1.68 in (1996)
Month to date precipitation 2.78  
Year to date precipitation 30.60  
Sea Level Pressure  
Sea Level Pressure 30.00 in    
Wind  
Wind Speed 3 mph (NNE)    
Max Wind Speed 15 mph    
Max Gust Speed 17 mph    
Visibility 6 miles    
Events Fog , Thunderstorm    
T = Trace of Precipitation, MM = Missing Value Source: NWS Daily Summary

Daily Weather History Graph

Daily Weather History Graph

Search for Another Location

Airport or City:

Trip Planner

Search our weather history database for the weather conditions in past years. The results will help you decide how hot, cold, wet, or windy it might be!

Date:

Astronomy

Sep. 26, 2012 Rise Set
Actual Time 6:44 AM CDT 6:42 PM CDT
Civil Twilight 6:17 AM CDT 7:09 PM CDT
Nautical Twilight 5:44 AM CDT 7:41 PM CDT
Astronomical Twilight 5:12 AM CDT 8:14 PM CDT
Moon 4:43 PM CDT (9/26) 3:08 AM CDT (9/26)
Length of Visible Light 12h 52m
Length of Day
11h 57m
Waxing Gibbous, 88% of the Moon is Illuminated
Sep 26
Waxing Gibbous
Sep 29
Full
Oct 8
Last Quarter
Oct 15
New
Oct 21
First Quarter

Hourly Weather History & Observations

Time (CDT) Temp. Dew Point Humidity Pressure Visibility Wind Dir Wind Speed Gust Speed Precip Events Conditions
12:15 AM 55.2 °F 55.0 °F 99% 29.88 in 0.2 mi Calm Calm - N/A Fog Fog
12:35 AM 54.7 °F 54.5 °F 99% 29.88 in 0.2 mi Calm Calm - N/A Fog Fog
12:55 AM 54.9 °F 54.7 °F 99% 29.88 in 0.2 mi Calm Calm - N/A Fog Fog
1:15 AM 53.4 °F 53.2 °F 99% 29.89 in 0.2 mi Calm Calm - N/A Fog Fog
1:35 AM 55.4 °F 55.4 °F 100% 29.89 in 0.2 mi Calm Calm - N/A Fog Fog
1:55 AM 53.1 °F 52.9 °F 99% 29.88 in 0.2 mi Calm Calm - N/A Fog Fog
2:15 AM 53.1 °F 52.9 °F 99% 29.87 in 0.2 mi Calm Calm - N/A Fog Fog
2:35 AM 53.8 °F 53.8 °F 100% 29.86 in 0.2 mi Calm Calm - N/A Fog Fog
2:55 AM 54.5 °F 54.3 °F 99% 29.87 in 0.2 mi Calm Calm - N/A Fog Fog
3:15 AM 56.8 °F 56.7 °F 99% 29.87 in 0.2 mi Calm Calm - N/A Fog Fog
3:35 AM 58.5 °F 58.3 °F 99% 29.87 in 0.2 mi Calm Calm - N/A Fog Fog
3:55 AM 59.0 °F 58.6 °F 99% 29.88 in 0.2 mi Calm Calm - N/A Fog Fog
4:15 AM 59.0 °F 59.0 °F 100% 29.89 in 0.2 mi Calm Calm - N/A Fog Fog
4:35 AM 59.0 °F 59.0 °F 100% 29.90 in 0.2 mi Calm Calm - N/A Fog Fog
4:55 AM 59.4 °F 59.2 °F 99% 29.90 in 0.2 mi Calm Calm - N/A Fog Fog
5:15 AM 59.5 °F 59.4 °F 99% 29.91 in 0.2 mi Calm Calm - N/A Fog Fog
5:35 AM 59.7 °F 59.5 °F 99% 29.91 in 0.2 mi Calm Calm - N/A Fog Fog
5:55 AM 60.1 °F 59.9 °F 99% 29.91 in 0.2 mi NW 3.5 mph - N/A Fog Fog
6:15 AM 60.1 °F 59.9 °F 99% 29.91 in 0.2 mi Calm Calm - N/A Fog Fog
6:35 AM 60.3 °F 60.1 °F 99% 29.93 in 0.2 mi Calm Calm - N/A Fog Fog
6:55 AM 60.8 °F 60.8 °F 100% 29.93 in 0.2 mi Calm Calm - N/A Fog Fog
7:15 AM 60.8 °F 60.4 °F 99% 29.94 in 0.5 mi Calm Calm - N/A Fog Fog
7:35 AM 60.8 °F 60.6 °F 99% 29.95 in 1.0 mi Calm Calm - N/A   Overcast
7:55 AM 59.2 °F 59.0 °F 99% 29.95 in 3.0 mi North 5.8 mph - N/A   Overcast
8:15 AM 59.2 °F 59.0 °F 99% 29.96 in 5.0 mi NNE 5.8 mph - N/A   Mostly Cloudy
8:35 AM 59.5 °F 59.4 °F 99% 29.97 in 7.0 mi NNE 4.6 mph - N/A   Mostly Cloudy
8:55 AM 59.9 °F 59.9 °F 100% 29.97 in 10.0 mi North 3.5 mph - N/A   Mostly Cloudy
9:15 AM 59.9 °F 59.4 °F 98% 29.98 in 10.0 mi North 4.6 mph - N/A   Mostly Cloudy
9:35 AM 60.4 °F 59.4 °F 96% 29.99 in 10.0 mi North 6.9 mph - N/A   Mostly Cloudy
9:55 AM 61.2 °F 59.9 °F 96% 30.00 in 10.0 mi North 4.6 mph - N/A   Mostly Cloudy
10:15 AM 61.7 °F 59.2 °F 91% 30.01 in 10.0 mi North 6.9 mph - N/A   Scattered Clouds
11:35 AM 67.1 °F 57.4 °F 71% 30.02 in 10.0 mi North 9.2 mph - N/A Thunderstorm Scattered Clouds
11:55 AM 67.3 °F 57.6 °F 71% 30.02 in 10.0 mi North 4.6 mph - N/A   Scattered Clouds
12:15 PM 69.1 °F 56.8 °F 65% 30.02 in 10.0 mi NE 4.6 mph - N/A   Scattered Clouds
12:35 PM 68.4 °F 56.5 °F 66% 30.02 in 10.0 mi Calm Calm - N/A   Scattered Clouds
12:55 PM 70.2 °F 55.8 °F 60% 30.02 in 10.0 mi NE 6.9 mph - N/A   Scattered Clouds
1:15 PM 70.0 °F 54.7 °F 58% 30.02 in 10.0 mi NE 11.5 mph - N/A   Scattered Clouds
1:35 PM 70.0 °F 54.7 °F 58% 30.02 in 10.0 mi North 9.2 mph 16.1 mph N/A   Scattered Clouds
1:55 PM 70.3 °F 54.3 °F 57% 30.02 in 10.0 mi North 10.4 mph - N/A   Clear
2:15 PM 70.2 °F 54.0 °F 56% 30.02 in 10.0 mi NE 10.4 mph - N/A   Clear
2:35 PM 69.8 °F 54.0 °F 57% 30.02 in 10.0 mi NE 9.2 mph - N/A   Clear
2:55 PM 70.5 °F 53.6 °F 55% 30.02 in 10.0 mi NNE 9.2 mph - N/A   Clear
3:15 PM 70.0 °F 52.2 °F 53% 30.01 in 10.0 mi North 10.4 mph - N/A   Clear
3:35 PM 69.6 °F 51.6 °F 53% 30.02 in 10.0 mi NNE 9.2 mph - N/A   Clear
3:55 PM 69.4 °F 51.1 °F 52% 30.02 in 10.0 mi NE 8.1 mph - N/A   Clear
4:15 PM 68.4 °F 50.2 °F 52% 30.02 in 10.0 mi NNE 12.7 mph - N/A   Clear
4:35 PM 67.3 °F 50.4 °F 55% 30.03 in 10.0 mi NNE 10.4 mph - N/A   Clear
4:55 PM 66.6 °F 51.3 °F 58% 30.04 in 10.0 mi NNE 11.5 mph - N/A   Clear
5:15 PM 65.5 °F 51.4 °F 60% 30.04 in 10.0 mi NNE 11.5 mph - N/A   Clear
5:35 PM 64.4 °F 51.1 °F 62% 30.05 in 7.0 mi NNE 15.0 mph - N/A   Clear
5:55 PM 63.0 °F 51.1 °F 65% 30.06 in 5.0 mi NE 11.5 mph 17.3 mph N/A   Haze
6:15 PM 61.9 °F 50.9 °F 67% 30.07 in 10.0 mi NNE 10.4 mph 16.1 mph N/A   Clear
6:35 PM 60.4 °F 50.9 °F 71% 30.08 in 10.0 mi NE 10.4 mph - N/A   Clear
6:55 PM 59.5 °F 50.5 °F 72% 30.09 in 10.0 mi NNE 11.5 mph - N/A   Clear
7:15 PM 59.0 °F 50.4 °F 73% 30.09 in 10.0 mi NNE 8.1 mph - N/A   Clear
7:35 PM 58.5 °F 50.2 °F 74% 30.11 in 10.0 mi NNE 8.1 mph - N/A   Clear
7:55 PM 57.9 °F 49.5 °F 73% 30.11 in 10.0 mi NNE 6.9 mph - N/A   Clear
8:15 PM 57.2 °F 48.9 °F 74% 30.12 in 10.0 mi NNE 6.9 mph - N/A   Clear
8:35 PM 56.5 °F 48.9 °F 76% 30.12 in 10.0 mi NNE 5.8 mph - N/A   Clear
8:55 PM 55.8 °F 48.4 °F 76% 30.12 in 10.0 mi NNE 3.5 mph - N/A   Clear
9:15 PM 55.4 °F 48.2 °F 77% 30.13 in 10.0 mi NNE 6.9 mph - N/A   Clear
9:35 PM 55.2 °F 47.3 °F 75% 30.14 in 10.0 mi North 5.8 mph - N/A   Clear
9:55 PM 54.7 °F 47.3 °F 76% 30.14 in 10.0 mi North 8.1 mph - N/A   Clear
10:15 PM 55.0 °F 46.9 °F 74% 30.14 in 10.0 mi North 10.4 mph - N/A   Clear
10:35 PM 54.9 °F 45.9 °F 72% 30.15 in 10.0 mi North 11.5 mph - N/A   Clear
10:55 PM 54.7 °F 44.8 °F 69% 30.15 in 10.0 mi NNE 8.1 mph - N/A   Clear
11:15 PM 54.1 °F 44.1 °F 69% 30.16 in 10.0 mi North 9.2 mph - N/A   Clear
11:35 PM 53.8 °F 43.7 °F 69% 30.16 in 10.0 mi North 5.8 mph - N/A   Clear
11:55 PM 54.1 °F 43.7 °F 68% 30.16 in 10.0 mi North 6.9 mph - N/A   Mostly Cloudy